Hourly Data Report for June 17, 2021

HALL BEACH A
NUNAVUT
Current Station Operator: NAVCAN

68°46'33.000" N
81°14'33.000" W
9.10 m
2402354
71293
YUX

Download Data

Hourly Data (June 2021)
Hourly Data Report for June 17, 2021
TIME
LST
Temp Definition
°C
Dew Point Definition
°C
Rel Hum Definition
%
Precip. Amount Definition
mm

Wind Dir Definition
10's deg

Wind Spd Definition
km/h
Visibility Definition
km
Stn Press Definition
kPa
Hmdx Definition


Wind Chill Definition


Weather Definition


00:00 1.3 0.7 96 0.0 29 22 16.1 100.43     LegendNANA
01:00 0.9 0.6 98 0.0 31 18 16.1 100.32     LegendNANA
02:00 0.8 0.5 98 0.0 32 28 16.1 100.24     LegendNANA
03:00 0.4 0.3 99 0.0 33 30 6.4 100.20     Snow
04:00 0.4 0.4 100 0.0 33 32 16.1 100.13     Rain
05:00 0.4 0.4 100 0.0 33 28 4.8 100.07     Rain, Fog
06:00 0.3 0.3 100 0.5 33 28 3.6 100.04     Snow
07:00 0.5 0.5 100 0.0 34 30 8.1 99.99     Snow
08:00 0.8 0.5 98 0.0 34 30 16.1 99.96     LegendNANA
09:00 0.9 0.5 97 0.0 34 32 14.5 99.92     Rain
10:00 1.2 0.5 95 0.0 36 28 11.3 99.88     LegendNANA
11:00 1.3 0.4 94 0.0 36 26 16.1 99.87     Rain
12:00 1.6 1.0 96 0.0 36 26 4.8 99.86     Rain, Fog
13:00 1.5 1.1 97 0.0 36 21 3.2 99.88     Rain, Fog
14:00 1.4 1.1 98 0.0 35 21 3.2 99.86     Fog
15:00 1.0 0.7 98 0.0 33 17 3.6 99.85     Fog
16:00 1.7 1.4 98 0.0 36 17 11.3 99.83     LegendNANA
17:00 1.3 1.0 98 0.0 1 15 0.4 99.83     Fog
18:00 1.3 1.2 99 0.0 36 11 0.4 99.83     Fog
19:00 1.1 1.1 100 0.0 35 13 11.3 99.79     LegendNANA
20:00 1.1 1.1 100 0.0 3 11 16.1 99.79     LegendNANA
21:00 0.0 0.0 100 0.0 7 13 0.2 99.80   -4 Fog
22:00 -1.2 -1.2 100 0.0 8 13 0.4 99.80   -5 Freezing Fog
23:00 -0.5 -0.5 100 0.0 5 8 0.4 99.81   -3 Freezing Fog

Notes on Data Quality.

Legend

  • E = Estimated
  • M = Missing
  • NA = Not Available*
  • [empty] = Indicates an unobserved value
Date modified: